Regional Weather Roundup
Issued by NWS

Home | Current Version | Previous Version | Graphics & Text | Print | Product List | Glossary On
Versions: 1 2 3 4 5 6 7 8 9 10 11 12 13 14 15 16 17 18 19 20 21 22 23 24 25 26 27 28 29 30 31 32 33 34 35 36 37 38 39 40 41 42 43 44 45 46 47 48 49 50
000
ASUS43 KMKX 232321
RWRWI

WISCONSIN REGIONAL WEATHER ROUNDUP
NATIONAL WEATHER SERVICE MILWAUKEE/SULLIVAN WI
500 PM CST SUN NOV 23 2014

NOTE: "FAIR" INDICATES FEW OR NO CLOUDS BELOW 12,000 FEET WITH NO
SIGNIFICANT WEATHER AND/OR OBSTRUCTIONS TO VISIBILITY.

WIZ001-002-006>008-014>016-023>028-240000-
NORTHWEST WISCONSIN

CITY           SKY/WX    TMP DP  RH WIND       PRES   REMARKS
SUPERIOR ARPT  DRIZZLE   38  38 100 CALM      29.37R
ASHLAND        FOG       40  40 100 N3        29.38S VSB 1/4
HAYWARD        FOG       39  38  96 CALM      29.35F VSB 1/2
SIREN          CLOUDY    39  38  94 CALM      29.38S
CUMBERLAND     FOG       37  36  93 N8        29.36R VSB 1/4 WCI  31
RICE LAKE      DRZL/FOG  38  37  99 NW3       29.37R VSB<1/4
CHETEK         FOG       40  40 100 CALM      29.35S VSB 1/4
LADYSMITH      FOG       43  43  97 SE5       29.37S VSB 1/4
EAU CLAIRE     CLOUDY    48  47  96 S6        29.34F FOG
MENOMONIE      FOG       46  46  99 E3        29.34F VSB 1/4
NEW RICHMOND   CLOUDY    38  38 100 N3        29.38S
OSCEOLA        CLOUDY    38  38 100 N3        29.40F
$$

WIZ003>005-009-010-017-018-240000-
NORTH CENTRAL WISCONSIN

CITY           SKY/WX    TMP DP  RH WIND       PRES   REMARKS
MANITOWISH WTR FOG       41  41 100 SE6       29.36F VSB 1/4
ARBOR VITAE    FOG       43  42  97 SE3       29.37F VSB 1/4
WOODRUFF       FOG       43  42  97 SE3       29.37F VSB 1/4
RHINELANDER    LGT RAIN  42  42 100 SE5       29.39F VSB 1/4
EAGLE RIVER    DRZL/FOG  42  42 100 CALM      29.38F VSB 1/2
LAND O LAKES   FOG       44  44 100 CALM      29.39F VSB 1/2
PHILLIPS       FOG       42  42 100 SE5       29.35F VSB 1/4
TOMAHAWK       DRZL/FOG  42  41  97 CALM      29.38F VSB 1/2
MEDFORD        LGT RAIN  43  43 100 SE3       29.37S VSB 3/4
MERRILL        LGT RAIN  43  43 100 SE3       29.39S VSB 1/2
$$

WIZ029-030-035-036-043>047-240000-
CENTRAL WISCONSIN

CITY           SKY/WX    TMP DP  RH WIND       PRES   REMARKS
WAUSAU         FOG       45  45 100 SE5       29.38F VSB 1/4
MOSINEE        FOG       45  45 100 CALM      29.39F VSB 1/8
MARSHFIELD     FOG       47  46  97 SE5       29.37F VSB 1/4
STEVENS POINT  DRIZZLE   45  44  99 SE3       29.39F
WAUPACA        RAIN      47  46  96 SE7       29.41S
WAUTOMA        CLOUDY    47  47 100 SE7       29.41F FOG
WISC RAPIDS    LGT RAIN  47  45  93 SE5       29.39F
CAMP DOUGLAS   DRIZZLE   48  48 100 SE5       29.37F
$$

WIZ011>013-019>022-031-037>040-048>050-240000-
NORTHEAST WISCONSIN

CITY           SKY/WX    TMP DP  RH WIND       PRES   REMARKS
ANTIGO         FOG       39  39 100 SE5       29.40F VSB<1/4
SHAWANO        DRIZZLE   47  46  94 SE3       29.41F
OCONTO         CLOUDY    42  42 100 SE6       29.43F VSB 1
STURGEON BAY   CLOUDY    45  41  87 S12       29.45F
GREEN BAY      LGT RAIN  45  44  97 SE6       29.43F FOG
MANITOWOC      LGT RAIN  45  44  97 S14       29.45F FOG
APPLETON       LGT RAIN  45  45 100 SE5       29.42  VSB 1/2
CLINTONVILLE   LGT RAIN  45  45 100 S5        29.41S
OSHKOSH        LGT RAIN  47  45  93 SE5       29.41F FOG
$$

WIZ032>034-041-042-053>061-240000-
SOUTHWEST WISCONSIN

CITY           SKY/WX    TMP DP  RH WIND       PRES   REMARKS
LA CROSSE      LGT RAIN  49  47  93 S3        29.35F VSB 1/2
SPARTA         DRIZZLE   47  46  97 CALM      29.37F
VIROQUA        CLOUDY    47  47 100 SE6       29.36F
BOSCOBEL       LGT RAIN  49  47  93 NE3       29.35F
PRAIRIE DU CHI LGT RAIN  48  46  93 CALM      29.35F
PLATTEVILLE    CLOUDY    48  47  98 E7        29.35F
$$

WIZ056-057-062-063-064-067-068-240000-
SOUTH CENTRAL WISCONSIN

CITY           SKY/WX    TMP DP  RH WIND       PRES   REMARKS
REEDSBURG      LGT RAIN  46  46  99 E5        29.37F
BARABOO/DELLS  RAIN      46  45  95 CALM      29.38F
LONE ROCK      LGT RAIN  51  46  83 E8        29.37F
MINERAL POINT  LGT RAIN  48  46  93 SE9       29.36F
MADISON        LGT RAIN  48  46  93 SE8       29.39F FOG
MIDDLETON      CLOUDY    48  48 100 E5        29.39F
WATERTOWN      DRIZZLE   48  48 100 SE6       29.41F
MONROE         DRIZZLE   46  46 100 SE9       29.37F
JANESVILLE     DRIZZLE   50  48  93 SE8       29.40F
$$

WIZ051-052-058>065-066-070>072-240000-
SOUTHEAST WISCONSIN

CITY           SKY/WX    TMP DP  RH WIND       PRES   REMARKS
MILWAUKEE      LGT RAIN  48  45  89 SE9       29.44F FOG
WAUKESHA       LGT RAIN  46  46 100 SE7       29.44F FOG
MILWAUKEE/TIMM RAIN      46  45  93 SE10      29.45F
RACINE         LGT RAIN  46  45  96 SE10      29.44F FOG
BURLINGTON     LGT RAIN  46  46 100 E5        29.42F
KENOSHA        LGT RAIN  48  47  96 SE13      29.42F FOG
FOND DU LAC    CLOUDY    48  46  93 S9        29.41F FOG
SHEBOYGAN      LGT RAIN  45  44  97 S12       29.44F FOG
WEST BEND      HVY RAIN  45  45 100 SE6       29.43F
JUNEAU         RAIN      47  47  99 SE8       29.42F
$$

LSZ147-162-240000-
LAKE SUPERIOR

STATION/POSITION TIME  TEMP    WIND        PRES    WAVE
                       AIR SEA DIR/SP/G            HT/PER
                 (UTC) (F)     (DEG/KT/KT) (MB)    (FT/S)
DEVILS ISLAND    2300   40     250/  2/  2  995.1F
PORT WING        2200   40        CALM      995.3
SAXON HARBOR     2240   42     280/  3/  5  994.6F
$$

LMZ867-665-643>646-240000-
LAKE MICHIGAN

STATION/POSITION TIME  TEMP    WIND        PRES    WAVE
                       AIR SEA DIR/SP/G            HT/PER
                 (UTC) (F)     (DEG/KT/KT) (MB)    (FT/S)
CHAMBERS ISLAND  2200   44     150/  6/ 13  998.3F
N MID LAKE BUOY  2250   45 42  170/ 14/ 16  998.4F   5/ 6
NORTHPORT PIER   2200   44     160/  7/ 12  998.6F
SISTER BAY       2228          160/ 10/ 14   N/A
ALGOMA LAKESHORE 2158          190/  9/ 11   N/A
KEWAUNEE LAKESHO 2200   42     150/ 10/ 11  997.7F
SHEBOYGAN LAKESH 2300   44 39  180/ 14/ 15  997.7F
PORT WASHINGTON  2240   42     180/  5/  7  998.6F
ATWATER BUOY     2300   48      CALM  /  2  998.9F
MILWAUKEE LAKESH 2300   43     160/  9/ 10   N/A
S MID LAKE BUOY  2250   46 42  130/ 14/ 14  998.1F   2/ 4
KENOSHA   LAKESH 2300   45     160/ 11/ 14  997.0F
$$

TC  - TEMPERATURE IN CELSIUS
VSB - VISIBILITY IN STATUTE MILES
WCI - WIND CHILL INDEX
HX  - HEAT INDEX




USA.gov is the U.S. government's official web portal to all federal, state and local government web resources and services.